CAPE
3361 3496 3156 3030 3328 3345 3306 3363 3455 3386 3100 2784 2864 2607 2250 1994 2138 1730 2105 2122 1965 2296 2506 2561 2281 2502 2304 2424 2046 2121 2699 2629 2802 2801 3212 3502 3470 3041 2572 3104 3657 3492 3288 3077 2694 2888 3254 3582 3627 3568 3526 3308 3184 2967 2665 2808 3305 3309 3008 2892 2742 2896 2968 3045 3068 3053 3084 2832 2660 2503 2238 2418 2144 2458 2618 2636 2776 3001 2757 2937 2932 2603 2577 2600 2583
3506 3358 3197 3259 3209 3492 3314 3289 3304 3378 3361 3001 3017 2797 2672 2359 2500 2500 2032 2312 2177 2318 2833 2568 2360 2208 2121 2089 2117 1920 2460 2786 2615 2714 3150 3452 3692 3082 3136 3168 3538 3771 3606 3649 3246 3074 3340 3866 3894 3567 3681 3524 3318 3091 2779 2430 2686 3131 3320 3210 3166 3127 3226 3284 3297 3358 3211 3076 3005 2975 2751 2674 2710 2870 3059 3190 3262 3303 3156 3152 2931 2830 2753 2766 3025
3277 3496 3397 3380 3321 3360 3352 3417 3478 3302 3352 3152 2825 2863 3026 2887 2552 2706 2150 2305 2493 2340 2729 2658 2667 2561 2440 2315 2336 2168 2651 2575 2867 2850 2957 3320 3621 3091 2449 2912 3402 3519 3681 3818 3725 3522 3349 3690 3846 3691 3247 3382 3588 3434 2820 2722 2512 2372 2344 2837 3060 3027 2950 3219 3445 3428 3380 3357 3316 3228 3133 3230 3244 3178 3236 3171 3645 3597 3855 3868 3501 3437 3249 3110 3100
3212 3480 3384 3314 3334 3503 3518 3439 3164 3147 3181 2981 2778 2554 2554 2932 2712 2734 2550 1996 2483 2790 2521 2877 2826 2986 2787 2684 2734 2734 2650 2621 2990 2984 2910 3048 3345 3627 3121 2769 3076 3378 3466 3399 3378 3459 3411 3600 3552 3133 3027 3128 3375 3824 3478 2800 2691 2733 2426 2405 2585 2684 2931 2841 3105 3497 3554 3452 3514 3329 3650 3823 3885 3761 3690 3752 3699 3808 3894 4010 3889 3838 3720 3594 3581
2960 3386 3330 3195 3228 3603 3488 3246 3254 3069 2875 2695 2819 2473 2219 2494 2922 2849 2686 1990 2070 2763 2801 3047 3218 3309 2983 2937 3060 3148 3051 3101 3169 3013 2988 2904 3351 3482 3366 3157 3062 3347 3509 3622 3347 3319 3358 3393 3368 3354 3214 2992 3310 3675 3534 3326 3129 2810 2874 3042 3289 3340 3431 3574 3779 3898 3758 3712 3705 3622 3670 3706 3730 3774 3794 3661 3550 3447 3517 3648 3571 3798 4054 3823 3505
3018 3410 3302 3066 3208 3393 3543 3329 3196 2972 2814 2542 2588 2392 2068 2131 2627 2786 2727 2335 1995 2485 2921 2876 3025 3560 3584 3407 3390 3594 3611 3628 3488 3295 2845 2943 3107 3329 3344 3263 3001 3213 3388 3609 3740 3594 3282 3448 3204 3148 3023 3055 3218 3257 3414 3412 3610 3542 3524 3462 3278 3427 3852 4073 4098 3849 3809 3722 3672 3516 3516 3335 3545 3518 3408 3453 3438 3423 3424 3542 3648 4000 4432 4126 3641
3195 3507 3364 3059 3294 3478 3616 3203 3220 2738 2643 2547 2374 2279 2011 1880 2111 2561 2635 2474 2018 2032 2702 2875 2943 3480 3943 3704 3490 3657 3921 3915 4070 3972 3317 2827 3076 3342 2996 2916 3099 3156 3256 3255 3249 3118 3204 3090 3218 3182 3175 3191 3310 3382 3301 3410 3524 3769 3950 4247 4030 3826 3848 3752 3655 3634 3653 3549 3474 3441 3422 3376 3442 3564 3376 3280 3352 3306 3389 3494 3805 4206 4822 5190 5264
3182 3564 3450 3116 3325 3404 3738 3434 2913 2937 2799 3034 2571 2318 2156 1811 1842 2298 2718 2627 2194 1970 2122 2679 2929 3287 3870 3920 3754 3762 4174 4210 4330 4405 4003 3287 2875 3246 3365 2895 2696 2961 2984 3267 3233 2568 2376 2636 2559 2907 3138 3342 3440 3418 3389 3365 3498 3774 3907 3955 4127 4150 4147 3912 3674 3721 3808 3607 3432 3341 3361 3424 3428 3184 3166 3468 3802 3737 3596 3901 4243 4531 4681 4950 4636
3167 3482 3576 3323 3827 4068 4089 3695 3346 3196 3172 3114 2710 2518 2382 2063 2010 2315 2818 2655 2236 1922 1795 2221 2802 2957 3528 3979 3789 3570 3964 4292 4252 4295 4517 3923 3154 2921 3456 3455 2906 2616 2946 2939 2932 2752 2044 1742 1874 1852 2798 3798 3422 3626 3228 3286 3347 3561 3864 3962 4072 4216 4234 4163 4045 4008 3892 3689 3702 3455 3234 3272 3305 3355 3135 3414 3590 3765 3993 4213 4604 4472 4301 4048 4197
3371 3465 3620 3641 3881 4060 4306 4154 3670 3747 3251 3244 3285 2745 2530 2492 1916 1885 2640 2788 2611 2323 2092 1942 2489 2994 3157 3652 3779 3594 3581 4126 4244 3874 3984 4221 3768 2908 3203 3780 3523 2753 2735 2907 2664 2416 2212 1772 1166 2008 2521 3742 3815 3582 3618 3595 3770 3467 3029 3475 4058 4348 4479 4459 4117 3846 3772 3666 3496 3293 3084 3024 2742 3064 3148 3328 3740 4162 4641 4856 4418 3965 3708 3514 3482
3172 3396 3801 3955 4109 4515 4515 4299 4196 4023 3780 3348 3253 3202 2920 2705 2495 2967 3016 3108 3171 3028 2521 1997 2030 2685 3060 3315 3716 3603 3455 3684 3918 3661 3688 3704 3942 3662 3028 3391 3756 3528 2758 2913 2817 2200 1921 1902 1655 2186 4532 4274 4335 3512 3596 3515 3462 3404 3077 2626 2959 4847 4699 4337 4038 4104 4060 3881 3649 3428 3176 3185 3324 3554 3520 3389 3631 4310 4964 4554 3697 3281 3117 3050 3006
3198 3688 3913 4074 4302 4576 4631 4533 4346 4206 3977 3830 3786 3496 2885 2996 3235 3312 2937 3155 3735 2877 2464 2306 2622 2398 2715 3230 3387 3530 3657 3495 3548 3566 3473 3458 3574 3993 3186 2984 3400 3531 3445 2814 2740 2713 2419 1920 1692 1451 1462 2148 2906 4255 3418 3357 3292 3172 2904 2491 2227 2057 1923 2879 3786 3792 3903 3934 3749 3527 3493 3508 3583 3727 3502 3626 4473 4766 4537 3996 3260 3197 3167 2956 2775
3352 4009 4045 4187 4452 4637 4733 4831 4570 4268 4222 4100 4080 3878 3665 3417 3185 2922 2741 3292 3357 3575 3465 2857 2801 2738 2726 3325 3213 3359 3620 3181 3148 3397 3350 3273 3223 3396 3303 2963 2664 3132 3388 3240 2701 2748 2770 2581 2103 1534 986 2810 3404 2745 4926 4206 3471 3185 2888 2716 2597 2456 2303 2165 2029 2428 3349 3683 3834 3808 3588 3575 3626 3888 4090 4624 4714 4841 4324 3417 3098 2940 3027 2907 2839
3442 3689 4059 4376 4566 4683 4919 4849 4737 4647 4398 4323 4266 4066 3743 3636 3248 3086 2890 3449 3773 3678 3219 3204 3193 3565 3166 3097 3440 3309 3867 3341 3059 3131 3203 3144 3053 3155 3063 2711 2908 2756 2845 2913 2886 2755 2708 2668 2766 2601 2032 1982 2454 2978 3258 4476 5246 4400 3943 3549 3307 3110 2906 2777 2594 2458 2326 2582 3408 3866 3835 3883 4162 4339 4435 4384 4518 4329 3729 3354 3128 2919 2554 2543 2432
3727 3781 4143 4407 4591 4857 4881 4937 4934 4816 4684 4433 4672 4454 4078 3923 3560 3241 3236 3563 3929 4055 3672 3510 3521 3564 3218 3048 3179 3073 3638 3685 3045 3050 3010 3003 2906 2690 2870 2236 2243 2691 2945 2986 3224 2959 3305 3149 2996 2819 3038 3075 2463 2915 3455 3974 4418 5203 5144 4486 4127 4351 4487 3833 3535 3389 3262 3145 3098 3528 4072 4324 4607 4996 4396 4384 4638 4532 4072 3788 3483 2965 2553 2411 1924
3526 3844 4110 4405 4647 4885 4744 4924 4997 4982 4780 4593 4711 4606 4328 4326 4163 3603 3311 3285 3748 4044 4201 3699 3751 3767 3656 3302 3016 2962 3542 3569 3152 3118 3070 2918 2794 2630 3128 2754 2455 2352 2689 3081 3361 3674 3613 3518 3715 3542 3372 3884 3877 3063 3470 4460 4430 4974 4921 4793 4629 4439 4668 4653 4319 3764 3613 3276 3337 3496 3795 4712 3919 3871 3466 3445 3630 3918 3533 2859 2538 2291 2213 1784 1611
3486 3983 4103 4258 4555 4904 4883 4986 5013 4859 4845 4738 4837 4828 4646 4518 4280 4017 3574 3296 3501 3934 4212 3862 3829 3900 3770 3656 3423 3463 3332 2978 2991 3042 3088 3025 2790 2726 3142 3161 3197 3092 2851 3004 3351 3550 3812 4072 4138 4066 4074 4188 4276 3860 3554 3633 4294 4597 4762 4685 4301 4063 3926 3761 3877 3643 3402 3143 3151 3311 3291 3248 3201 3295 3321 3353 3417 2954 2777 2598 2395 1704 1299 1485 1545
3724 4199 4116 4274 4574 4760 4830 4865 4899 4868 4959 4920 4874 4686 4599 4480 4339 4207 3873 3417 2931 3440 3942 4042 3755 3736 3725 3880 3614 3513 3331 4508 2937 2922 2957 2922 2805 3094 3232 3287 3377 3447 3405 3353 3399 3479 3873 4142 4432 4298 4192 4327 4292 4220 4038 3756 4286 4346 4338 4196 4138 4126 4002 3482 3027 3222 2962 2892 2901 3057 3129 3162 3224 3421 3455 3361 3010 2845 2701 2429 1722 1048 1253 1280 919
3678 4105 4150 4264 4518 4749 4719 4788 4854 4872 4900 4801 4590 4680 4652 4646 4518 4362 3847 3492 3045 2963 3276 3626 3747 3816 3773 3694 3758 3500 3484 4714 3082 2957 2897 2816 2732 3358 3416 3421 3450 3724 3585 3678 3765 3847 4115 4278 4658 4533 4309 4596 4203 4047 4036 4196 4452 4536 4539 4338 4260 4133 3673 3487 3507 3743 3841 3611 3651 3475 3742 3719 3472 3552 3661 2872 2840 2566 2273 1782 1112 1268 989 296 179
3862 4348 4340 4408 4583 4676 4628 4895 5001 4826 4862 4746 4579 4835 4689 4490 4494 4323 3957 3681 3274 2821 2878 3224 3656 3703 3436 3422 3524 3757 3786 3590 3360 2957 2948 2897 2769 3371 3599 3500 3528 3649 3786 3870 3885 3997 3994 4253 4609 3559 3506 3824 4016 4030 4051 4068 4475 4538 4575 4463 4111 4360 3433 3303 5745 4750 4536 4380 4402 4034 3933 3959 3914 3994 4391 4114 2876 2214 2187 1672 1651 1432 278 17 5
4195 4646 4578 4320 4385 4588 4604 4838 4836 4548 4744 4752 4576 4444 4437 4401 4278 4261 4070 3706 3444 3317 2872 2930 3185 3505 3327 3161 3064 3324 3385 3739 3206 3153 2986 2961 2868 2811 3700 3684 3603 3863 4114 4058 3727 3857 4105 3975 4031 4017 3794 3491 3480 3644 3901 3941 4050 4630 4265 4318 4781 4964 3878 4261 5131 4137 4546 4348 3962 3926 4112 4088 2988 2345 2431 2354 2367 2280 2342 1571 1005 0 0 0 93
4245 4625 4675 4336 4302 4382 4499 4839 4749 4579 4600 4679 4649 4597 4577 4367 4295 4483 4163 4064 3958 3830 3666 3366 3034 3156 3215 3038 3095 3168 3323 3518 3614 3216 3195 3175 3052 2828 3406 3708 3841 3954 4150 4107 3871 3630 3664 4013 4498 4271 4098 4020 3606 3328 3322 3324 3327 3302 3964 3450 3317 3340 4270 3752 4059 3861 4025 3775 3740 3766 3937 2978 2340 2700 2549 2583 2457 2371 2036 857 0 4 74 261 298
4404 4804 4694 4219 4364 4476 4623 4802 4671 4344 4462 4650 4596 4607 4682 4481 4455 4678 4549 4377 4235 4062 4155 3707 3476 3292 3310 3448 3171 3536 4282 4735 3384 3519 3386 3243 3124 2952 2764 3276 3456 4476 3913 3930 3948 3914 3735 3692 4051 4848 4094 4024 3928 3718 3406 3209 3029 2958 2934 2854 2739 2707 2599 3033 3113 3242 3720 3747 3740 4156 3052 3158 3023 2880 2682 2580 2397 2082 1393 0 82 260 471 369 215
4619 4816 4606 4292 4364 4403 4463 4632 4533 4098 4500 4739 4675 4798 4754 4652 4602 4791 4747 4474 4380 4372 4390 4284 3952 3650 3577 3476 3389 3153 4151 4193 4085 3345 3313 3311 3206 3049 2833 2666 3165 3642 3725 3912 3951 3806 4146 4244 4751 4362 4084 3820 3788 3608 3427 3268 3175 3062 2880 2617 2443 2264 2214 2634 3053 3465 3842 3737 3916 3101 3292 3062 2897 2894 2797 2555 2279 1809 929 399 567 591 544 501 513
4792 4823 4383 4216 4359 4386 4387 4689 4478 4254 4458 4825 4892 4774 4799 4692 4654 4725 4809 4638 4576 4502 4580 4490 4275 3985 3705 3602 3519 3402 3537 4143 4029 3607 3579 3365 3116 3074 2958 2789 2604 2919 3266 3450 3878 3775 3636 3750 4144 4081 3770 3662 3522 3354 3299 3186 2949 2664 2400 2236 2122 2265 2441 2960 3437 3739 3760 3341 3278 3256 3132 2894 2840 2747 2533 2362 2093 1518 501 722 602 567 591 521 398
4973 4946 4453 4256 4321 4073 4437 4565 4457 4137 4539 4756 4900 4864 4918 4654 4752 4908 4770 4679 4580 4565 4631 4350 4380 4242 3995 3884 3815 3792 3935 3957 4743 3832 3624 3549 3394 3205 3064 2943 2806 2609 2779 3090 3037 3069 3080 2861 3014 3234 3478 3444 3358 3286 3173 3021 2639 2191 2066 2152 2364 2563 3060 3174 3459 3399 3195 3178 3249 3081 2977 2634 2543 2620 2160 2229 2362 1540 579 505 444 496 337 297 267
4950 4915 4554 4259 4388 4146 4287 4378 4382 4272 4548 4726 4853 4936 4936 4821 4758 4762 4737 4438 4520 4398 4196 3985 4086 4026 3999 3883 3836 3882 4000 3870 4016 4882 3595 3548 3442 3295 3249 3236 3220 2942 2676 2581 2724 2829 2869 2758 2709 2714 3004 3116 3332 3048 3029 2967 2560 2192 2106 2308 2651 2771 3050 3186 3308 3131 3047 3294 3191 3070 2748 2699 2484 2402 2505 2407 2306 1634 317 279 179 146 134 220 313
4873 4801 4391 4213 4163 4140 4416 4297 4423 4335 4492 4544 4722 4775 4774 4806 4584 4550 4537 4481 4172 3892 3841 3809 3823 3618 3593 3657 3609 3620 3816 3933 3917 4000 3970 3664 3484 3401 3388 3363 3356 3208 2891 2664 2516 2498 2668 2714 2696 2681 2668 2642 2671 2714 2711 2728 2465 2166 2162 2559 2712 2611 2823 2455 2456 2902 3338 3287 3074 2908 2872 2817 2682 2615 2346 2199 2162 1150 184 208 34 175 190 198 378
4738 4788 4547 4371 4378 4264 4328 4231 4431 4388 4354 4427 4597 4824 4733 4819 4890 4388 4309 4508 4097 3902 3974 3621 3439 3743 3838 3848 3807 4002 4167 4184 4250 3727 4283 3898 3778 3691 3602 3541 3500 3401 3085 2772 2632 2577 2942 2574 2582 2815 2664 2626 2612 2552 2408 2150 1969 1997 2170 2557 2528 2310 2084 2667 3130 3164 3152 3113 2987 2830 2759 2683 2528 2371 2174 2046 1551 437 330 197 163 259 287 270 262
4775 4769 4500 4448 4398 4122 4258 4086 4063 4296 4365 4360 4495 4139 4212 4272 5684 5925 4894 4065 3779 3495 3631 5691 6308 3970 3741 4029 4245 4227 4078 4080 4306 3758 4149 4156 4020 3930 3836 3743 3665 3564 3305 2904 2820 2752 2818 2755 2444 2428 2457 2522 2353 2458 2598 2093 2089 1924 2062 2296 2368 2049 2090 3008 3157 3113 3085 2976 2794 2737 2608 2497 2351 2186 2018 1560 609 379 212 0 125 154 87 40 11
4580 4647 4390 4350 4160 4118 4123 4112 3983 4396 4570 4486 4485 4660 4008 3982 4104 4276 4633 4080 3823 3690 3628 3732 4008 4106 5330 5143 5610 4129 5174 5242 4709 3931 4050 4205 4176 4088 4042 3953 3722 3453 3358 3256 3191 3017 2939 3082 2578 2473 2404 2325 2270 2436 2552 2315 1996 2073 2032 2016 1810 1944 2823 3094 3242 3090 2944 2855 2777 2645 2556 2252 2048 1934 1631 741 399 326 163 119 67 101 14 0 0
4347 4312 4335 4146 4784 4857 4251 4318 4227 4285 4481 4755 4590 4990 4547 4074 3822 3921 4126 4288 3936 3792 3623 3605 3785 3841 3805 5329 5298 4244 4203 4470 4433 4203 4118 4049 3980 4009 3948 3986 3824 3632 3590 3464 3377 3263 3124 2996 2821 2770 2566 2502 2313 2372 2437 2268 2049 2217 2094 1825 1646 2540 3000 3214 3027 2807 2800 2691 2523 2436 2315 2072 1787 1541 914 428 357 403 370 95 56 2 0 0 0
3992 4080 4365 4294 4289 4548 4334 4518 4472 4343 4363 4786 4987 5296 4922 4535 4138 3680 3706 4036 4070 3878 3733 3629 3671 3824 3806 4242 4998 4666 4274 4238 4278 4302 4291 4182 4102 4103 4046 3925 3724 3687 3649 3576 3489 3369 3276 3147 3021 3072 2899 2647 2471 2514 2403 2234 2236 2085 1966 1969 2356 2959 3108 2931 2740 2724 2490 2348 2343 2241 1934 1632 1458 1081 443 416 366 216 224 73 62 9 0 0 0
4286 4219 4430 4476 4704 4559 4777 4916 4900 4856 4710 5021 5336 5495 5105 4951 4667 4132 3523 3693 3941 4001 3909 3729 3641 3660 3792 3866 4049 4431 4426 4338 4271 4363 4397 4322 4246 4055 3834 3803 3789 3759 3676 3628 3551 3489 3385 3257 3126 2997 3015 2894 2742 2560 2471 2426 2439 2507 2553 2629 2919 3006 2878 2767 2765 2390 2276 2262 2118 1863 1696 1519 995 534 492 384 76 19 4 2 0 0 0 0 0
4268 4228 4504 4654 5153 5000 4953 5188 5210 5392 5188 5209 5302 5190 4777 5222 5130 4596 4007 3878 3872 3878 4009 3920 3754 3575 3576 3660 3784 3933 4034 4113 4196 4209 4176 4060 3975 3883 3866 3858 3875 3798 3708 3643 3604 3586 3493 3390 3289 3190 3108 3304 2955 2909 2918 2951 2935 2836 2773 2882 2805 2755 2817 2682 2329 2285 2199 2022 1794 1670 1527 939 615 536 410 109 0 0 0 0 0 0 0 0 0
4695 5073 5026 4862 4998 5069 5171 5310 5528 5524 5729 5902 5641 5101 4748 4907 4504 4774 4452 4063 4002 4273 4162 3908 3903 3810 3694 3513 3392 3468 3570 3623 3646 3660 3818 4035 4045 3993 3862 3895 3881 3846 3812 3744 3659 3605 3534 3476 3407 3354 3281 3214 3202 3193 3202 3117 2990 2862 2760 2708 2623 2669 2654 2272 2261 2224 2036 1768 1680 1498 1092 872 768 569 199 0 0 0 0 0 0 0 0 0 0
4185 4343 4873 5082 4983 4822 4688 5116 5424 5354 5168 5266 5401 5143 4702 4794 4438 4667 4796 4691 4411 4021 3858 3745 3644 3735 3775 3782 3747 3598 3477 3470 3496 3551 3620 3742 3880 3938 3716 3747 3750 3790 3847 3807 3716 3633 3574 3508 3439 3352 3298 3297 3319 3284 3110 3038 2945 2738 2562 2509 2523 2418 2162 2093 2093 1940 1817 1713 1550 1342 1208 920 689 257 183 0 0 0 0 0 0 0 0 0 0
3951 3852 4133 4590 4810 4440 5153 5216 4941 4958 5572 5355 5384 5284 4986 4861 4861 4544 4107 3848 4258 4088 3903 3853 3765 3652 3642 3689 3720 3755 3769 3723 3761 3773 3751 3816 3892 3895 3844 3780 3624 3710 3797 3780 3748 3734 3653 3572 3536 3494 3463 3449 3396 3280 3157 2982 2869 2730 2597 2494 2405 2253 2073 1783 1789 1765 1692 1615 1438 1384 1249 1000 585 79 0 590 522 209 0 0 0 0 0 0 0
3533 4089 4158 4024 4215 4600 4667 4457 4480 4604 4458 4736 4728 4727 4593 4385 4330 4154 4008 3822 3896 3956 3941 3845 3767 3714 3679 3591 3583 3533 3542 3628 3670 3732 3754 3830 3877 3909 3852 3771 3707 3660 3708 3796 3825 3772 3748 3708 3724 3416 3446 3291 3198 3164 2956 2854 2846 2579 2551 2504 2094 1878 1684 1588 1772 1726 1659 1589 1545 1534 1214 1038 883 616 432 539 635 107 0 1 2 0 0 0 0
3298 3514 3821 3875 3714 3810 3802 3768 3792 3834 3906 3766 3908 3922 3792 3698 3750 4001 3759 3986 3849 3853 3795 3703 3684 3725 3591 3440 3471 3470 3507 3527 3646 3697 3766 3810 3889 3895 3884 3883 3894 3818 3862 3919 3922 3889 3870 3905 3957 3984 3906 3508 3344 3035 2970 2806 2620 2543 2184 1974 1849 1546 1569 1656 1801 1708 1415 1295 1409 1253 883 681 500 462 370 11 0 0 2 0 1 2 0 0 0
2808 3080 3156 3073 2878 2952 3048 3182 3311 3598 3851 3491 3691 3760 3631 3718 3666 3496 3428 3505 3452 3509 3557 3559 3618 3578 3411 3524 3577 3621 3546 3486 3521 3657 3780 3846 3892 3960 3980 3996 3947 3972 3922 3976 4004 4034 4011 3979 3992 3751 3434 3330 3104 3074 2724 2563 2165 2006 2128 2060 1899 1491 1452 1284 1306 1219 1312 1227 1010 798 600 530 464 549 618 0 3 1 0 0 0 0 2 8 8
2262 2717 2901 2891 2746 2836 2808 2849 3000 3130 3127 3182 3428 3336 3273 3299 3288 2989 3004 3144 3095 3124 3097 3380 3473 3459 3605 3759 3689 3670 3664 3671 3646 3631 3755 3892 4000 4090 4071 4066 4085 4084 4039 4037 4055 4098 3912 3740 3208 3086 3066 3034 2974 2730 2424 2101 1768 1633 1565 1349 1116 1146 893 1008 1152 1049 971 961 628 625 660 740 685 99 3 1 0 0 0 0 1 8 11 7 8
2210 2371 2721 2747 2727 2648 2607 2668 2858 3116 3298 3376 3378 3258 3165 3127 3125 3133 3156 3176 3222 3258 3302 3428 3589 3654 3712 3779 3764 3768 3773 3836 3808 3792 3782 3867 3895 4045 4129 3938 3788 3687 3630 3734 3764 3719 3584 3062 2868 2937 2869 2899 2771 2384 2148 2102 2014 1748 1533 1319 874 782 802 824 907 874 808 775 690 677 729 430 1 2 6 10 9 8 6 3 3 10 14 15 14
2101 2308 2395 2692 2782 2682 2584 2662 2916 3130 3454 3621 3629 3583 3529 3420 3363 3320 3330 3314 3353 3471 3668 3732 3705 3617 3729 3795 3792 3788 3900 3884 3851 3831 3763 3655 3593 3665 3686 3745 3746 3614 3432 3326 3357 3362 3336 3363 3083 2836 2534 2348 2227 2089 1896 1726 1571 1365 1108 1159 1005 927 837 781 906 834 631 516 499 232 1 6 5 7 8 3 2 1 0 15 25 12 9 12 4
1472 1873 2295 2606 2748 2808 2760 2756 2940 3226 3448 3574 3673 3745 3790 3810 3829 3845 3853 3869 3862 3858 3859 3821 3797 3800 3748 3666 3502 3471 3555 3509 3383 3319 3216 3140 3105 3146 3254 3160 3064 2993 2934 2917 2941 2793 2513 2187 1942 1888 1988 2039 2117 1853 1623 1433 1354 1408 1226 1131 1059 1027 785 670 585 358 0 0 0 0 0 0 1 3 3 2 2 3 1 3 4 5 6 9 10
309 925 1584 2172 2513 2674 2753 2894 3018 3162 3278 3378 3458 3474 3480 3500 3548 3531 3540 3659 3801 3839 3750 3700 3725 3340 3432 3386 3259 3144 3067 2919 2719 2757 2873 2847 2711 2736 2675 2714 2572 2253 2045 2179 2227 2229 2089 1951 1896 1861 1669 1933 1970 1859 1613 1559 1448 1295 1054 899 794 681 467 0 0 0 0 0 0 0 0 0 0 0 0 0 0 0 0 0 0 0 0 0 0
2 232 1038 1696 2044 2432 2606 2728 2849 2943 2972 3049 3137 3230 3190 3192 3171 3088 3050 2960 3101 3244 3256 3185 3191 3115 3223 3398 3211 3069 2940 2722 2520 2423 2357 2359 2296 2225 2124 1968 1845 1745 1870 1893 1972 2021 2071 2003 1988 1868 1721 1682 1619 1584 1559 1273 1072 950 787 588 445 136 0 0 0 0 0 0 0 0 0 0 0 0 0 0 0 0 0 0 0 0 0 0 0
0 0 2 472 1353 1859 2032 2139 2203 2311 2499 2629 2796 2855 2835 2744 2721 2768 2740 2739 2861 2914 2884 2712 2586 2620 2630 2681 2660 2562 2562 2572 2464 2378 2240 2139 2108 1962 1913 1824 1699 1688 1666 1680 1697 1726 1690 1673 1492 1384 1273 1171 1092 1104 910 771 774 754 474 0 0 0 0 0 0 0 0 0 0 0 0 0 0 0 0 0 0 0 0 0 0 0 0 0 0
0 0 3 0 1 531 620 1153 1665 1984 2239 2414 2516 2585 2577 2459 2249 2225 2306 2522 2781 2945 2993 2380 2513 2523 2414 2300 2189 2080 1996 2130 2196 2142 1926 1751 1714 1654 1577 1504 1430 1420 1422 1462 1440 1504 1532 1515 1484 1403 1320 1256 1104 994 992 977 558 84 0 0 0 0 0 0 0 0 0 0 0 0 0 0 0 0 0 0 0 0 0 0 0 0 0 0 0
0 0 1 0 0 88 0 615 837 1091 1554 1903 2061 2186 2272 2383 2291 2184 2139 2216 2325 2342 2332 2297 2248 2034 1991 1919 1841 1828 1826 1777 1698 1626 1551 1459 1362 1344 1255 1123 1063 1078 1116 1166 1152 1155 1178 1166 1141 1140 1056 1016 892 649 397 299 0 0 0 0 0 0 0 0 0 0 0 0 0 0 0 0 0 0 0 0 0 0 0 0 1 1 0 0 0
1 1 1 4 8 110 161 0 354 716 820 860 1245 1548 1785 1924 1877 1776 1662 1668 1718 1843 1797 1718 1657 1678 1658 1607 1556 1384 1330 1273 1269 1252 1226 1182 1215 1173 1078 1054 1057 1013 971 948 933 940 874 831 794 768 707 633 574 487 379 19 0 0 0 0 0 0 0 0 0 0 0 0 0 0 0 0 0 0 0 0 0 0 0 0 1 2 3 2 0
Wind_Speed
19 20 22 21 22 21 19 17 17 19 18 17 15 14 13 12 11 10 10 8 8 7 6 6 8 9 9 10 9 8 6 6 5 4 4 5 5 5 6 7 8 8 9 10 9 7 5 3 2 3 3 4 4 4 5 6 6 4 1 2 3 4 4 5 7 7 6 6 7 8 8 8 9 9 11 12 11 11 16 17 18 18 20 23 23
18 20 22 22 22 21 20 19 19 20 18 18 16 16 15 14 13 11 9 9 9 7 6 8 9 9 9 9 9 8 6 4 4 3 3 4 5 4 5 6 7 8 8 9 9 9 8 7 4 2 3 2 3 3 3 2 5 5 3 2 3 4 4 5 6 7 9 7 8 7 8 8 9 9 10 10 10 10 12 12 12 16 20 23 22
19 21 22 22 22 22 22 21 20 19 18 19 16 16 16 15 14 12 11 11 10 8 8 8 11 11 11 10 8 7 6 4 4 3 2 3 4 5 5 6 7 8 8 8 9 9 9 9 8 5 2 3 3 2 1 1 0 1 2 2 3 4 5 5 5 7 9 8 7 7 6 5 5 5 6 8 9 11 13 14 17 20 23 23 21
20 21 21 22 23 23 22 22 20 20 19 19 17 16 16 16 15 14 12 12 12 10 10 10 12 13 11 11 8 7 5 4 3 2 2 3 3 4 4 4 6 7 8 8 8 8 9 9 8 7 5 3 3 2 2 2 1 1 3 4 5 6 6 7 6 6 7 8 6 6 5 5 5 5 6 9 11 12 13 14 19 22 24 24 23
22 22 21 22 23 23 22 21 21 20 19 19 18 17 15 16 17 15 14 12 12 12 11 12 13 13 12 11 9 7 5 4 2 1 1 2 3 4 4 4 4 6 7 7 7 7 8 8 8 7 6 5 4 4 3 3 2 3 3 3 4 5 5 5 5 5 5 6 6 4 3 3 4 6 9 12 13 13 15 18 21 23 23 24 25
22 23 23 23 23 23 22 21 20 20 20 20 20 18 16 15 17 17 15 14 13 13 11 13 15 14 14 13 11 9 7 5 3 1 2 2 3 3 4 4 5 6 7 7 8 8 7 8 7 7 6 6 4 3 2 3 2 3 4 4 5 5 6 5 4 4 4 4 4 5 3 4 5 8 11 13 14 12 15 20 23 25 26 26 26
21 23 24 23 23 22 23 21 19 19 20 21 21 20 17 15 16 17 17 15 14 13 13 12 16 16 16 15 12 10 8 5 4 1 0 1 3 4 3 5 6 6 7 8 8 9 9 8 7 7 7 6 5 3 2 2 1 3 3 5 5 6 6 5 4 3 3 3 4 5 5 6 6 6 8 11 15 17 17 19 21 22 23 23 26
21 22 23 24 23 23 23 23 21 20 21 22 21 21 19 17 17 18 18 16 15 14 13 14 16 17 17 16 14 12 9 6 4 2 2 3 4 6 4 4 7 8 8 8 9 8 9 9 8 8 8 7 6 3 1 1 2 2 3 4 5 5 6 6 4 3 1 2 3 2 2 2 5 8 9 13 16 16 17 16 16 15 17 21 23
20 21 22 22 22 23 25 25 24 23 22 22 21 21 21 19 19 19 19 17 17 16 14 15 16 17 17 17 15 13 9 7 5 4 5 5 6 7 7 7 7 8 8 9 8 7 7 7 7 7 8 9 8 3 1 5 3 3 4 5 5 5 5 5 4 2 1 0 0 1 2 3 5 8 10 12 12 10 11 14 15 14 15 16 19
19 20 21 20 22 24 26 27 26 25 24 23 22 21 21 20 19 18 19 18 19 19 18 17 16 17 17 17 16 14 11 9 7 7 7 7 8 8 9 9 9 8 8 8 7 8 8 6 6 8 8 13 12 9 4 5 6 5 6 6 6 6 5 5 4 3 3 2 1 1 2 3 4 6 7 9 10 9 12 14 12 12 14 15 16
18 19 20 21 22 23 26 27 28 26 25 24 24 23 21 22 21 21 20 20 20 21 19 16 16 17 16 17 15 14 12 10 11 10 9 7 8 9 9 11 11 9 10 10 8 7 7 8 6 5 9 12 13 13 10 7 5 2 2 6 10 11 9 6 5 4 4 3 2 2 2 3 4 4 5 7 8 9 13 13 12 13 15 12 12
19 18 20 21 21 22 24 27 28 28 26 25 25 24 23 22 23 22 20 20 21 20 19 18 17 17 17 17 16 14 13 11 16 14 12 10 8 9 9 10 11 11 10 10 11 10 9 8 8 6 5 7 8 11 10 9 6 4 2 1 4 6 5 6 7 7 5 3 2 2 2 3 2 4 5 6 6 9 12 13 14 16 16 16 17
21 19 19 20 21 22 24 26 28 28 27 26 26 26 26 24 22 21 20 21 21 21 21 20 18 16 17 17 16 15 13 16 19 17 14 13 12 8 9 10 10 10 10 11 11 12 11 10 8 7 5 11 10 7 10 9 6 5 4 2 3 3 2 2 3 4 5 2 2 2 2 1 3 4 7 5 7 11 14 14 15 16 18 20 22
22 20 20 21 21 22 24 26 27 27 28 28 27 27 26 25 23 22 22 23 22 20 19 20 19 18 16 17 18 19 17 24 21 20 17 15 15 12 9 9 9 9 10 10 11 12 13 12 12 11 9 7 9 9 7 8 10 10 9 9 7 5 5 4 4 6 6 5 4 4 3 3 3 4 7 9 10 12 12 12 13 16 20 24 24
26 22 22 22 22 23 24 25 26 27 27 28 28 27 27 26 24 23 23 22 22 21 20 20 20 18 16 15 17 19 19 27 23 23 19 18 17 14 10 9 9 9 9 10 11 12 13 13 13 12 12 10 9 10 9 8 8 11 12 10 8 8 9 9 10 10 10 10 9 7 5 3 3 3 5 12 16 16 17 16 17 19 23 25 28
27 25 24 24 23 24 26 26 26 26 27 27 27 27 27 27 26 25 25 23 23 23 22 21 20 18 17 15 16 18 22 28 25 25 23 19 20 15 12 9 8 9 11 11 12 13 12 13 13 13 13 13 12 12 11 10 10 9 10 11 11 10 10 10 16 15 14 14 13 12 9 6 11 5 8 12 16 18 17 18 20 21 23 24 26
28 27 26 26 25 26 27 27 26 26 26 26 27 27 27 27 26 27 25 24 22 22 21 20 21 20 18 18 15 20 21 27 27 25 25 23 21 15 14 12 10 9 10 12 13 13 13 14 14 14 14 13 14 18 13 13 9 10 12 13 14 13 11 11 19 20 18 17 19 18 12 11 8 7 7 8 13 16 17 18 20 19 20 20 21
29 30 28 27 27 27 28 28 26 26 26 26 26 27 27 27 26 27 25 23 21 21 21 21 21 20 19 18 17 19 20 28 27 28 26 26 22 17 16 15 12 12 12 12 13 13 13 15 15 15 14 14 17 20 18 16 10 10 11 12 13 12 12 11 14 16 16 15 13 14 14 16 18 16 14 14 14 19 20 21 19 20 21 22 22
32 31 30 29 28 28 29 28 26 25 26 25 25 26 27 28 27 27 25 23 21 21 21 21 21 21 20 18 20 18 19 26 27 28 27 26 23 19 19 17 15 15 14 14 14 13 13 15 17 16 16 14 20 22 21 18 12 11 12 13 14 13 13 14 12 18 20 17 18 18 16 16 17 18 19 21 22 25 27 26 24 25 24 23 26
34 34 33 32 29 28 29 28 25 25 25 26 25 26 27 28 27 26 25 24 23 20 20 21 19 20 21 19 21 19 19 25 27 28 28 27 26 22 20 18 17 16 16 17 16 15 14 14 18 20 17 17 25 22 21 17 14 12 13 14 15 14 16 14 20 17 16 15 15 15 14 15 20 23 25 27 27 29 30 30 30 28 26 nan nan
39 37 35 33 31 29 29 27 25 24 25 26 26 26 27 27 27 26 25 24 23 21 19 20 20 21 21 21 21 20 19 22 27 27 29 29 26 24 21 19 19 18 18 18 18 17 16 16 15 22 23 19 23 24 21 17 14 13 14 15 19 26 27 19 23 20 18 17 17 16 17 19 20 22 24 28 29 32 33 33 30 nan nan nan nan
40 39 36 33 31 30 29 28 25 25 26 27 28 27 26 27 27 27 25 25 23 21 21 20 20 21 22 22 22 20 22 19 28 25 29 28 27 25 22 21 20 20 19 19 19 18 17 18 17 22 27 24 21 21 19 18 15 15 13 20 32 27 24 21 15 14 15 17 17 18 19 20 21 23 25 27 27 28 29 28 nan nan nan 33 34
41 40 37 33 32 31 30 29 27 26 26 27 28 27 28 27 27 27 25 24 23 21 21 20 20 21 22 22 22 21 23 24 32 27 25 27 26 24 21 21 22 19 19 19 20 21 19 18 18 26 29 27 24 20 17 15 18 16 16 22 27 29 24 18 17 16 16 18 18 18 21 23 24 27 28 30 29 32 30 nan nan 33 35 36 38
43 41 37 34 33 32 30 29 28 27 27 28 28 28 28 27 27 26 25 24 23 22 21 20 20 19 18 20 20 19 21 23 29 30 27 25 24 24 21 18 22 20 18 17 21 22 20 20 23 33 30 30 27 22 19 21 19 16 16 21 27 26 22 20 20 20 21 20 20 21 22 24 26 29 31 32 29 31 31 32 34 35 36 37 38
44 41 38 36 35 33 30 29 28 28 27 28 28 27 27 27 26 25 24 23 22 21 20 20 18 18 17 17 17 18 19 19 25 27 29 26 24 24 22 21 17 19 18 17 17 24 33 37 37 34 33 32 32 31 28 23 19 21 21 25 26 23 23 22 21 23 23 22 22 24 24 27 28 30 33 32 31 32 33 35 35 35 37 39 40
43 41 38 37 36 32 30 29 28 27 27 26 25 25 25 25 25 24 23 22 20 19 18 18 17 16 15 15 16 17 19 18 21 25 24 26 24 23 24 22 20 18 17 20 35 36 35 39 41 41 39 38 34 29 27 27 24 24 26 26 23 23 24 24 23 24 23 25 25 27 27 30 32 34 35 34 33 34 36 36 36 37 39 40 41
42 40 38 37 35 31 29 28 28 26 26 24 23 23 24 24 24 23 21 20 18 17 17 16 15 14 14 14 15 16 16 17 17 23 24 26 23 22 20 18 18 18 18 23 29 29 32 30 33 35 37 35 35 36 36 34 31 26 24 23 23 24 26 25 25 24 26 26 28 29 30 33 34 36 35 37 36 37 38 39 38 39 40 42 42
39 38 36 36 33 30 28 29 28 25 23 22 22 22 22 22 21 20 19 18 17 16 15 14 13 13 14 14 15 15 15 16 15 18 22 22 22 24 23 22 23 22 20 19 19 20 26 34 34 33 33 32 32 29 29 29 28 27 25 25 25 24 28 34 29 28 29 29 30 32 34 34 34 35 37 37 38 40 40 40 nan 40 41 42 42
39 38 37 35 32 30 28 27 25 23 21 20 21 22 21 19 20 19 18 17 18 17 17 17 16 16 16 17 17 16 17 15 16 17 24 25 25 24 23 22 21 22 20 20 19 19 21 26 25 28 26 24 23 23 26 27 25 25 26 28 27 27 30 30 31 31 32 33 34 35 35 35 36 38 38 40 42 40 43 43 42 42 42 43 43
38 38 37 35 31 29 27 26 24 22 21 21 22 31 41 43 34 24 20 20 21 23 28 23 23 18 17 18 20 17 15 16 21 22 33 29 26 28 26 25 22 21 25 27 23 22 22 23 23 22 23 24 23 24 25 28 26 26 28 27 27 29 32 33 33 34 35 35 37 36 37 37 39 39 40 41 45 43 45 nan 43 44 nan nan nan
39 38 36 33 30 28 27 26 23 22 21 22 21 28 29 37 44 44 41 35 33 40 39 37 37 37 29 21 32 35 35 35 30 31 33 31 29 31 32 30 28 26 34 32 25 24 24 25 23 23 23 23 24 25 27 28 27 27 28 30 30 33 35 35 36 36 37 38 38 37 40 39 40 42 42 44 44 45 45 46 nan 46 nan nan nan
37 37 35 32 32 30 27 26 24 22 22 23 23 25 27 30 35 44 45 42 41 39 38 37 37 36 37 35 30 29 32 35 35 34 33 33 34 34 34 34 33 35 36 38 31 27 26 27 26 25 25 23 23 24 26 26 27 28 29 32 33 34 37 37 37 38 40 38 39 39 41 41 42 44 44 45 45 45 45 nan nan nan nan nan nan
35 36 34 32 31 30 28 27 25 25 24 26 26 27 27 27 29 33 39 45 44 43 42 40 37 37 39 40 37 32 32 34 39 39 38 37 37 36 36 37 38 37 41 36 30 30 28 29 29 28 27 25 25 25 25 26 27 29 29 33 34 36 36 37 42 41 39 39 39 40 41 42 43 45 45 44 45 44 46 nan nan nan nan nan nan
34 35 35 32 31 31 31 30 29 29 29 29 29 29 29 30 30 32 34 34 38 42 46 45 42 40 42 41 40 40 39 38 40 41 41 41 41 41 41 35 35 38 41 34 31 29 30 30 31 30 28 28 27 28 28 28 29 31 31 32 33 35 38 42 43 41 39 41 40 41 43 44 46 45 45 45 nan nan nan nan nan nan nan nan nan
33 34 33 34 35 36 34 34 33 33 33 32 31 30 31 33 33 35 32 32 32 34 33 38 43 45 41 40 41 42 42 42 43 43 45 44 44 45 45 39 36 30 30 30 30 30 30 31 32 32 31 32 32 31 33 34 35 35 36 37 36 40 43 43 42 42 41 43 42 42 45 44 46 45 46 47 nan nan nan nan nan nan nan nan nan
36 39 39 40 40 39 38 37 37 36 36 35 34 33 34 35 34 35 36 35 34 33 34 40 41 45 49 50 46 44 45 45 45 45 45 46 45 45 38 35 32 32 31 30 30 31 31 34 35 36 37 37 38 37 40 38 38 40 40 42 44 45 44 44 43 44 44 45 45 45 46 45 44 47 48 nan nan nan nan nan nan nan nan nan nan
46 43 41 41 41 41 42 43 41 41 41 39 38 37 36 36 36 36 38 39 37 37 44 43 43 44 46 45 47 49 48 48 48 48 46 44 43 39 35 35 32 32 31 31 31 33 36 37 39 42 43 43 43 43 41 40 41 41 44 47 47 45 45 45 47 48 47 44 45 46 46 44 46 47 45 nan nan nan nan nan nan nan nan nan nan
51 51 49 43 40 43 45 48 52 52 47 44 41 38 39 38 38 38 37 41 47 47 45 45 45 45 44 45 43 45 49 51 55 54 50 45 39 36 35 33 34 34 34 36 40 40 42 44 43 45 46 47 44 43 43 43 43 43 45 46 46 42 45 47 48 46 44 43 44 45 44 44 44 nan nan 44 43 44 nan nan nan nan nan nan nan
50 54 56 59 57 48 49 49 47 41 42 39 36 33 33 34 35 37 43 46 44 44 45 44 44 45 49 49 50 51 51 47 44 45 44 42 40 37 35 37 40 40 41 41 42 43 45 45 45 46 46 46 44 43 42 42 43 43 43 43 44 40 37 40 41 41 41 41 42 43 44 43 43 43 44 44 45 46 nan nan nan nan nan nan nan
51 49 52 56 53 54 50 48 43 39 38 35 32 31 31 33 36 42 39 39 42 40 40 41 42 44 46 47 49 48 48 47 45 45 44 44 41 40 41 41 42 43 42 42 43 44 46 45 44 45 44 43 41 41 41 42 42 41 41 41 40 40 39 38 39 40 38 39 39 41 41 42 42 43 43 nan nan nan nan nan nan nan nan nan nan
54 53 53 55 56 54 52 50 48 46 43 43 44 46 47 47 44 41 41 41 39 38 38 40 41 42 43 44 44 43 44 47 46 46 45 45 45 44 43 43 43 42 41 42 44 44 43 43 43 43 42 42 40 39 40 42 42 41 40 41 43 44 41 36 38 40 39 39 39 40 41 41 42 44 45 nan nan nan nan nan nan nan nan nan nan
58 57 56 56 55 52 50 50 49 50 49 47 48 48 48 47 46 41 41 42 40 40 40 40 40 40 42 45 40 34 40 45 45 45 45 45 45 45 45 44 42 40 40 41 42 43 42 42 41 40 41 40 39 40 41 43 42 42 42 41 44 45 41 38 38 38 38 38 40 39 41 43 47 nan nan nan nan nan nan nan nan nan nan nan nan
62 61 60 58 58 56 53 52 52 52 51 51 51 50 48 46 45 44 45 45 44 42 40 39 38 38 38 39 42 45 43 42 43 44 44 44 45 44 43 42 41 40 40 40 41 42 42 43 43 42 41 39 38 40 41 40 40 43 44 43 40 40 39 40 43 42 40 38 40 43 45 45 nan nan nan nan nan nan nan nan nan nan nan nan nan
65 64 62 61 60 60 59 58 58 57 55 54 53 49 46 45 45 46 47 47 46 44 41 40 40 39 39 40 40 39 40 40 40 41 42 42 42 42 41 41 41 41 41 42 44 45 45 44 43 42 42 41 42 43 43 42 42 44 45 45 43 41 42 44 42 42 43 43 44 45 nan nan nan nan nan nan nan nan nan nan nan nan nan nan nan
69 68 67 65 63 62 62 59 58 57 56 55 52 49 47 46 46 46 46 46 46 45 44 43 42 40 39 39 40 40 41 41 41 40 41 41 41 41 41 42 42 44 44 44 45 46 46 45 45 45 45 45 45 45 46 46 46 46 45 43 44 46 46 46 45 45 nan nan nan nan nan nan nan nan nan nan nan nan nan nan nan nan nan nan nan
70 70 71 68 65 64 63 62 62 61 60 57 54 50 48 48 48 47 47 47 46 47 47 45 44 43 43 43 42 42 42 43 43 43 43 43 43 43 44 45 47 47 47 48 48 48 48 49 50 49 49 48 48 47 47 48 48 47 46 46 46 47 45 nan nan nan nan nan nan nan nan nan nan nan nan nan nan nan nan nan nan nan nan nan nan
nan 70 69 66 62 61 61 62 61 61 60 59 56 53 52 52 51 49 48 47 47 45 46 46 46 46 45 45 45 45 45 45 45 45 47 47 47 47 46 47 47 48 48 48 48 49 51 53 54 54 53 52 51 50 48 48 49 48 48 47 46 45 nan nan nan nan nan nan nan nan nan nan nan nan nan nan nan nan nan nan nan nan nan nan nan
nan nan nan 64 63 63 63 62 62 61 60 59 57 56 55 55 54 52 50 48 48 46 45 44 45 46 46 46 46 47 47 47 48 48 48 49 49 50 50 50 50 50 51 51 52 52 53 55 55 55 55 55 54 52 50 49 50 49 49 nan nan nan nan nan nan nan nan nan nan nan nan nan nan nan nan nan nan nan nan nan nan nan nan nan nan
nan nan nan nan nan 67 66 65 64 63 61 60 59 59 58 57 55 54 53 51 50 48 46 45 45 45 46 47 47 48 48 49 49 50 50 51 52 53 53 54 55 55 55 56 55 55 55 55 55 55 55 54 53 53 53 52 52 nan nan nan nan nan nan nan nan nan nan nan nan nan nan nan nan nan nan nan nan nan nan nan nan nan nan nan nan
nan nan nan nan nan nan nan 64 63 62 62 62 62 61 61 59 57 55 54 54 55 54 52 50 49 48 47 48 48 49 50 50 50 51 51 51 52 52 53 55 56 56 56 56 55 55 54 54 54 54 54 54 54 54 55 55 nan nan nan nan nan nan nan nan nan nan nan nan nan nan nan nan nan nan nan nan nan nan nan nan nan nan nan nan nan
nan nan nan nan nan 70 68 nan 67 66 65 65 64 64 64 62 60 58 56 57 58 58 57 56 54 52 51 50 49 49 49 50 50 51 51 52 52 52 53 53 54 54 54 54 53 53 53 53 53 54 54 55 55 56 56 nan nan nan nan nan nan nan nan nan nan nan nan nan nan nan nan nan nan nan nan nan nan nan nan nan nan nan nan nan nan
Wind_Direction
266 257 254 253 255 257 253 247 245 240 244 249 247 245 241 234 233 225 231 227 237 246 234 215 203 185 165 160 145 144 137 124 122 110 91 77 77 74 71 27 39 48 53 58 52 42 30 6 316 295 282 277 277 288 300 314 324 334 7 57 66 59 64 74 93 105 103 97 105 105 104 96 82 67 62 50 42 27 18 19 19 21 19 17 17
267 263 258 258 265 262 261 252 247 244 249 253 250 248 243 240 238 234 238 237 234 240 233 210 197 183 171 163 155 142 145 135 112 109 89 67 53 41 40 42 26 37 41 43 47 48 30 35 35 360 316 310 285 303 302 302 325 342 350 44 77 86 66 86 96 110 116 119 109 107 103 86 76 58 52 51 50 41 43 33 23 18 19 21 20
269 263 260 261 267 265 263 258 254 256 257 254 258 254 249 245 241 241 237 243 239 228 229 205 199 187 180 179 171 158 157 140 128 117 102 60 49 52 28 14 19 23 27 32 35 33 37 31 36 32 353 341 339 348 11 6 104 137 79 82 89 100 100 90 101 106 115 118 116 106 92 88 84 80 70 59 44 40 35 27 16 12 16 22 21
271 269 266 266 269 266 266 264 267 265 263 257 263 260 254 248 246 244 241 239 246 231 221 210 202 194 186 184 184 178 175 156 148 109 74 42 36 36 36 14 4 11 20 21 22 23 28 30 34 35 30 14 5 18 31 40 48 69 113 118 126 113 120 119 112 115 111 110 101 86 78 71 65 54 54 52 51 44 35 19 13 14 18 17 15
274 274 274 273 272 269 274 273 273 273 271 264 270 268 260 252 248 249 247 241 247 242 223 211 204 200 193 193 194 195 192 181 166 112 53 28 16 15 9 3 360 357 4 11 15 13 16 24 23 23 27 30 18 27 37 57 72 101 96 108 110 118 119 120 113 105 106 99 100 91 85 68 49 41 41 49 47 36 20 13 16 18 14 14 9
283 276 274 275 273 277 275 276 280 281 277 273 274 272 266 257 253 248 249 250 249 248 235 216 207 205 200 200 203 207 204 203 197 144 54 9 352 355 342 346 353 354 356 1 7 5 11 13 17 14 12 18 30 32 48 52 65 93 116 132 138 140 132 126 126 114 104 104 106 104 72 54 33 26 32 39 43 28 13 13 17 15 10 9 5
292 284 279 279 277 279 278 278 276 278 274 273 269 270 270 265 258 253 250 253 255 252 248 226 213 210 209 206 209 214 213 213 216 228 52 352 331 331 342 336 338 341 350 0 5 5 6 7 6 7 3 5 15 24 33 77 116 110 132 142 145 148 150 149 149 123 97 86 66 52 49 25 10 10 18 36 35 20 16 17 17 13 10 3 354
303 295 285 279 278 283 281 278 274 268 266 263 265 269 270 264 258 253 250 253 257 259 256 243 225 218 215 212 214 218 220 219 231 260 296 314 318 319 325 324 333 338 346 352 1 6 3 4 9 2 359 355 360 0 13 210 187 153 166 166 165 166 167 173 171 160 116 76 49 41 19 340 345 3 21 31 29 11 4 9 17 20 21 7 355
302 303 295 286 280 279 275 273 270 268 265 261 262 265 266 264 259 255 253 250 250 258 255 252 240 228 223 218 219 220 223 226 233 265 291 309 309 317 318 322 325 329 338 350 353 357 1 1 3 13 343 339 351 342 255 235 230 210 196 187 184 185 182 192 196 192 180 106 183 313 355 335 338 5 22 24 26 14 354 358 7 15 23 21 357
295 301 302 293 280 274 273 271 271 271 269 267 264 264 264 264 265 262 258 253 248 249 251 250 250 241 231 226 223 220 218 224 246 302 298 289 305 301 304 309 316 321 326 335 346 345 351 356 360 1 345 329 329 333 329 255 238 213 208 207 201 200 202 204 209 210 220 222 285 315 352 337 346 5 23 29 24 357 343 347 2 16 20 22 9
291 296 295 291 282 277 273 272 271 272 271 270 270 266 263 260 258 257 256 254 246 246 250 256 251 247 241 232 230 222 219 224 275 292 304 309 297 299 300 303 312 318 325 324 328 335 336 342 350 332 308 305 313 324 327 325 307 294 169 179 195 205 207 211 219 223 226 228 279 332 356 11 10 10 16 28 27 344 340 345 354 4 8 19 32
286 285 286 285 285 285 278 274 273 274 272 271 270 269 266 259 254 257 259 260 249 249 253 255 251 249 243 237 233 226 223 239 275 292 303 309 300 292 300 298 303 314 319 322 320 320 327 329 331 327 321 309 301 303 315 326 327 320 329 196 175 175 205 220 220 225 237 245 280 327 358 34 35 350 351 12 341 340 348 346 348 356 8 15 17
279 277 280 282 285 287 281 277 275 275 275 273 269 267 266 263 261 261 265 259 254 247 248 253 255 250 244 242 236 234 227 252 274 292 302 310 317 301 293 297 302 308 311 317 315 311 313 315 319 315 300 306 300 298 294 300 308 328 305 273 203 212 210 221 267 263 244 261 302 318 347 56 76 357 326 331 325 344 342 348 343 355 9 13 14
274 276 273 278 283 288 286 282 278 277 275 274 272 272 271 269 268 263 259 256 253 250 251 251 251 252 246 238 235 231 229 255 278 289 298 309 315 304 295 296 300 303 305 307 304 309 315 315 313 315 314 295 277 278 273 281 279 270 257 246 237 247 285 319 329 351 347 332 336 334 323 353 42 5 335 329 338 344 342 344 349 4 13 13 15
265 269 273 277 282 287 292 289 283 278 277 277 274 276 275 271 271 264 261 260 257 252 250 250 248 250 253 243 235 235 231 261 277 287 294 308 313 303 305 299 294 295 296 299 297 301 306 315 317 317 309 302 284 272 270 274 268 263 265 258 254 250 268 286 294 303 311 320 335 352 354 7 42 42 351 315 325 336 339 345 354 6 13 14 12
267 270 274 279 287 290 292 292 287 283 281 279 278 277 277 274 273 265 259 259 255 251 248 246 249 250 251 247 238 238 238 264 275 285 293 304 307 289 301 303 292 290 293 296 298 296 303 308 309 312 305 300 297 292 276 268 268 261 250 244 241 249 264 286 305 311 318 321 330 338 346 291 269 279 292 316 325 330 333 337 344 355 5 5 2
271 275 278 282 287 291 290 292 290 287 285 283 281 279 278 277 273 266 264 261 260 256 253 251 245 247 249 246 241 237 237 258 273 281 287 298 289 287 300 295 287 291 290 296 298 302 306 307 307 303 305 300 295 295 290 276 267 254 245 239 238 243 250 258 300 321 325 339 338 351 315 301 325 335 348 335 331 318 324 335 339 341 347 357 2
273 276 279 284 287 289 288 290 291 289 286 286 283 278 278 275 275 271 270 266 262 259 254 250 248 245 248 248 248 243 238 255 273 279 287 294 296 296 294 290 289 288 289 292 293 296 304 313 311 309 303 296 297 294 291 285 277 263 249 241 245 250 255 262 272 301 314 295 296 320 329 342 338 342 337 333 334 325 329 337 337 335 344 350 357
275 279 282 283 283 284 285 287 291 291 288 287 281 277 277 276 275 272 271 269 262 256 253 251 248 246 246 247 249 250 240 254 274 280 289 296 295 289 290 284 286 287 287 288 292 290 293 300 311 309 300 291 288 294 292 290 282 270 258 250 251 252 256 263 274 286 294 306 310 312 316 317 318 320 326 337 346 339 337 341 338 337 339 344 349
274 274 274 275 277 279 281 285 289 290 287 284 278 274 270 271 276 277 275 271 268 261 257 252 251 246 244 245 246 253 246 247 271 284 290 295 302 290 284 283 282 286 286 287 290 294 296 293 298 312 314 294 282 289 292 297 284 273 261 254 252 256 258 266 265 270 283 293 304 311 317 317 320 324 330 332 334 333 336 340 340 337 335 nan nan
267 270 272 275 278 280 279 283 288 286 281 279 276 272 269 271 273 276 276 272 269 265 260 254 250 245 243 243 243 251 252 254 267 288 292 297 304 296 281 282 279 278 283 286 290 293 294 296 292 304 314 312 297 291 292 297 282 270 262 253 249 249 248 258 276 278 276 281 286 297 308 321 317 316 321 317 323 327 333 338 337 nan nan nan nan
266 269 272 275 277 278 278 278 281 276 274 274 274 271 269 269 269 273 272 270 270 267 258 251 248 245 242 243 242 245 255 267 262 284 293 299 302 306 284 280 277 279 282 285 290 292 293 292 292 297 309 312 313 304 299 295 294 266 260 253 257 251 251 257 261 271 271 279 294 306 315 315 311 311 306 307 311 312 315 320 nan nan nan 332 332
265 267 271 274 273 275 275 278 276 270 270 274 275 272 268 268 268 270 271 270 269 267 262 255 250 246 243 243 243 246 250 258 273 276 291 297 302 302 298 279 283 277 282 287 290 290 291 290 289 295 304 308 309 309 304 297 274 261 254 250 257 260 261 265 268 272 279 284 292 302 303 307 315 312 311 308 309 307 315 nan nan 324 325 329 332
260 264 268 271 271 272 273 275 274 270 273 272 272 270 268 267 268 269 271 268 265 263 259 257 252 250 248 247 247 249 253 254 272 286 286 297 297 302 302 290 280 285 289 286 286 288 290 290 284 289 296 298 300 303 293 280 269 274 272 265 267 268 266 273 278 282 284 288 296 298 304 311 311 310 308 304 306 306 312 316 318 319 323 327 331
257 261 266 267 269 270 270 270 274 273 275 275 271 269 270 270 269 269 269 266 263 261 260 259 257 253 250 249 249 251 256 260 260 275 291 293 295 297 300 304 298 287 291 287 283 270 265 264 269 283 287 289 286 276 268 273 270 259 275 278 275 270 273 274 280 284 288 292 298 302 307 308 307 304 301 304 307 312 313 313 313 318 324 326 328
252 256 259 263 267 270 272 274 277 276 277 272 268 265 267 268 267 266 265 263 261 261 260 258 257 255 251 250 249 250 251 252 259 267 274 288 291 300 305 311 315 306 292 276 262 269 269 268 271 272 272 275 277 276 272 269 271 268 277 280 278 278 278 279 280 282 288 295 301 304 304 304 304 301 302 308 310 309 307 309 313 318 319 321 323
247 249 254 259 264 267 273 272 273 274 274 270 265 263 263 264 263 263 262 261 262 260 259 258 254 254 250 246 248 249 249 251 251 261 263 263 267 275 283 288 304 303 290 283 280 274 278 278 274 273 274 274 268 269 269 269 269 270 273 280 283 283 280 281 284 286 292 296 298 300 302 300 299 300 308 308 309 309 308 309 312 314 315 317 321
243 246 253 256 261 267 269 270 273 272 273 271 268 264 262 262 262 261 260 260 259 257 255 253 250 247 244 242 243 246 247 248 251 257 266 267 269 272 279 283 286 290 295 302 304 300 287 279 281 278 279 279 279 278 276 274 274 276 280 283 286 287 281 269 273 288 293 294 293 294 293 295 302 306 306 307 304 303 306 307 nan 312 313 314 318
238 245 249 253 258 259 262 265 268 268 268 265 260 255 251 255 252 245 246 246 245 246 245 240 239 236 237 240 243 245 245 244 252 255 269 276 280 283 286 290 293 294 307 314 317 322 311 296 295 290 289 289 287 284 281 280 278 280 283 288 291 291 287 290 293 293 293 295 294 296 300 302 303 302 303 304 303 304 306 306 308 309 311 314 316
238 244 247 250 254 256 256 261 263 261 263 259 255 239 226 227 224 230 236 246 242 233 233 237 236 241 246 247 247 253 254 251 257 272 284 295 296 297 298 302 308 307 310 318 316 322 325 311 305 304 303 298 297 294 290 285 283 284 287 291 294 295 295 296 295 295 295 297 297 299 300 300 300 301 301 303 302 304 304 nan 308 308 nan nan nan
237 241 245 247 250 251 252 255 257 252 251 251 247 243 236 229 223 220 219 225 240 244 240 238 232 228 233 240 239 239 257 261 271 281 290 299 298 298 299 303 307 307 301 304 311 321 323 325 321 314 311 308 303 301 295 291 290 291 293 295 296 296 296 295 296 296 296 296 296 297 297 299 299 299 299 299 300 302 304 305 nan 308 nan nan nan
236 240 242 242 243 245 249 250 250 247 241 243 241 240 238 234 228 220 220 226 233 239 242 239 237 235 233 234 243 242 244 259 268 274 280 289 293 293 296 299 303 298 302 309 311 317 320 323 325 322 320 318 311 303 299 297 293 293 294 295 296 294 295 295 296 295 294 294 295 295 296 297 297 298 298 298 299 302 303 nan nan nan nan nan nan
236 239 241 241 242 245 247 246 243 242 238 238 237 237 236 236 236 232 226 226 231 234 234 236 238 239 240 238 235 247 255 260 266 268 271 274 275 279 285 291 294 295 296 298 306 310 314 319 322 320 319 318 313 310 307 303 296 293 293 291 292 292 294 291 290 292 293 295 295 296 296 296 297 298 299 300 301 303 304 nan nan nan nan nan nan
234 235 238 239 242 243 242 242 240 238 237 235 236 237 235 236 236 238 238 235 234 232 233 233 235 240 240 242 248 250 254 261 265 267 268 269 269 270 271 268 274 291 297 297 300 302 305 312 313 315 314 311 307 303 302 299 292 293 294 294 294 294 291 285 289 292 294 294 295 296 297 298 299 301 302 302 nan nan nan nan nan nan nan nan nan
230 234 239 239 238 240 239 240 241 239 239 237 238 239 239 239 240 243 243 244 244 244 243 239 234 231 240 245 248 255 256 257 261 264 266 268 270 271 269 269 271 270 283 290 294 295 299 303 306 307 306 301 297 294 292 290 290 293 294 294 294 291 287 290 292 294 295 294 296 295 296 297 297 298 298 299 nan nan nan nan nan nan nan nan nan
230 230 231 232 232 236 239 240 241 241 240 240 240 240 239 241 243 245 247 248 247 246 248 245 243 242 244 242 245 252 258 262 265 267 270 273 275 276 272 274 276 278 280 285 289 291 292 293 294 296 296 295 293 289 288 291 295 295 295 294 291 288 290 292 293 293 292 292 292 291 292 293 295 297 298 nan nan nan nan nan nan nan nan nan nan
222 224 228 231 232 235 236 236 237 241 241 240 240 241 243 245 246 246 249 252 251 250 249 249 251 250 249 250 251 250 251 258 262 265 271 277 282 275 270 271 274 277 281 286 288 285 286 289 290 287 288 289 289 287 288 291 292 295 292 289 288 291 294 295 291 288 289 290 290 289 292 294 296 297 298 nan nan nan nan nan nan nan nan nan nan
227 224 224 226 233 233 237 240 237 240 244 242 241 242 245 247 250 250 250 251 252 253 255 255 256 258 260 259 259 258 259 261 262 262 263 265 272 273 271 267 266 275 280 277 275 278 278 276 277 284 287 285 283 282 282 284 286 285 286 287 283 279 283 284 282 284 286 289 290 290 293 294 295 nan nan 299 298 300 nan nan nan nan nan nan nan
231 225 221 223 228 233 239 238 241 246 249 248 248 248 250 254 256 255 253 256 257 256 257 260 261 261 259 262 262 265 267 268 270 272 275 277 277 278 276 267 262 265 267 270 271 272 273 275 275 274 276 279 281 282 284 285 283 280 277 277 277 280 284 284 279 277 282 286 288 290 292 293 293 296 297 298 299 300 nan nan nan nan nan nan nan
229 230 224 223 233 231 233 234 236 238 243 247 250 253 256 257 258 256 260 264 261 260 260 260 261 260 261 264 265 269 270 271 272 272 274 276 276 273 270 268 266 267 271 274 272 272 272 272 271 270 271 271 272 274 275 275 277 278 279 278 279 281 281 282 283 281 284 288 290 290 291 291 292 293 297 nan nan nan nan nan nan nan nan nan nan
226 227 228 227 228 232 231 233 235 235 241 244 242 246 247 247 253 260 261 265 265 265 265 263 262 263 263 263 264 259 264 269 270 270 270 271 271 271 271 270 270 272 274 274 271 272 271 272 272 271 271 274 274 274 276 275 273 276 278 279 283 283 282 283 288 293 296 295 291 290 290 291 292 293 296 nan nan nan nan nan nan nan nan nan nan
225 225 228 230 234 237 237 238 240 240 240 241 243 246 250 252 255 261 265 267 269 269 267 264 260 258 251 252 253 253 263 265 266 267 267 267 268 269 268 268 268 270 272 271 270 270 271 270 270 271 274 276 278 280 280 279 276 277 279 280 286 288 288 288 291 294 293 291 291 292 292 293 289 nan nan nan nan nan nan nan nan nan nan nan nan
226 226 226 229 231 234 236 238 240 241 241 241 243 245 250 254 259 262 265 269 271 270 265 262 261 258 253 255 255 254 260 262 262 263 263 264 265 263 263 262 263 262 263 266 269 271 271 271 271 270 272 274 275 275 273 273 275 274 277 285 286 288 291 292 292 291 289 288 289 291 291 290 nan nan nan nan nan nan nan nan nan nan nan nan nan
226 226 227 228 229 232 234 236 237 237 238 239 241 245 249 254 259 263 267 268 267 263 262 262 263 260 260 257 256 259 260 261 263 262 263 264 265 266 265 263 260 261 262 264 261 260 262 264 264 263 263 266 267 268 269 271 276 284 290 288 281 277 276 275 278 282 281 280 283 287 nan nan nan nan nan nan nan nan nan nan nan nan nan nan nan
226 226 227 227 228 231 235 236 238 241 242 242 243 245 248 251 255 259 261 262 261 262 262 263 264 264 263 262 262 261 260 260 262 263 263 263 261 261 262 262 260 261 263 266 268 268 269 271 271 269 268 267 267 268 269 269 270 269 270 273 276 276 274 273 275 277 nan nan nan nan nan nan nan nan nan nan nan nan nan nan nan nan nan nan nan
226 228 228 226 225 228 232 235 235 235 238 241 243 244 247 250 255 257 258 257 258 259 260 260 260 260 260 261 260 259 260 262 262 262 263 262 261 260 260 260 261 261 261 261 262 263 266 267 267 266 265 266 267 268 268 267 267 266 266 268 269 271 273 nan nan nan nan nan nan nan nan nan nan nan nan nan nan nan nan nan nan nan nan nan nan
nan 226 228 229 229 230 232 234 234 235 236 236 238 242 245 249 253 254 253 253 255 257 258 259 259 258 259 259 258 258 259 260 261 261 261 261 261 261 260 260 259 259 259 259 260 261 263 265 266 267 267 267 267 266 266 266 267 268 269 268 269 269 nan nan nan nan nan nan nan nan nan nan nan nan nan nan nan nan nan nan nan nan nan nan nan
nan nan nan 228 233 234 234 233 234 236 238 239 239 241 245 249 251 250 250 250 249 248 249 250 255 256 257 257 257 256 257 258 259 260 259 260 260 260 259 259 258 258 258 258 259 260 262 264 265 266 267 268 268 267 267 267 268 268 269 nan nan nan nan nan nan nan nan nan nan nan nan nan nan nan nan nan nan nan nan nan nan nan nan nan nan
nan nan nan nan nan 233 231 229 231 234 237 239 239 239 242 245 246 245 246 247 246 246 248 252 254 253 253 253 253 254 255 255 255 256 256 256 257 257 258 260 261 262 262 263 263 262 263 263 264 265 266 267 267 268 268 267 267 nan nan nan nan nan nan nan nan nan nan nan nan nan nan nan nan nan nan nan nan nan nan nan nan nan nan nan nan
nan nan nan nan nan nan nan 227 228 231 232 233 235 238 240 241 240 240 241 242 243 243 243 244 246 248 250 250 250 251 252 253 253 254 255 255 256 256 257 257 258 259 260 261 261 261 262 262 262 262 263 264 264 265 265 266 nan nan nan nan nan nan nan nan nan nan nan nan nan nan nan nan nan nan nan nan nan nan nan nan nan nan nan nan nan
nan nan nan nan nan 228 228 nan 230 230 229 229 231 234 237 239 239 239 239 240 242 242 243 243 245 247 248 248 248 249 249 250 251 252 253 254 254 254 254 254 254 255 256 256 257 257 257 258 259 260 261 263 264 266 266 nan nan nan nan nan nan nan nan nan nan nan nan nan nan nan nan nan nan nan nan nan nan nan nan nan nan nan nan nan nan